{"data":{"norad_id":65551,"intl_designator":"2025-201B","name":"GEESAT-5 02","alt_names":[],"object_type":"PAYLOAD","status":"ACTIVE","operator":null,"country":"PRC","launch_date":"2025-09-08","launch_site_code":"YSLA","launch_vehicle":null,"mission":null,"orbit_class":"UNKNOWN","rcs_meters":null,"size_class":null,"mass_kg":null,"dimensions":null,"purposes":[],"wikipedia_slug":null,"has_3d_model":false,"image_url":null,"decayed_at":null,"tle_current":{"epoch":"2026-09-19T04:11:24.750528Z","epoch_age_seconds":267158,"freshness":"STALE","line1":"1 65551U 25201B   26262.17459202  .00000907  00000+0  13366-3 0  9997","line2":"2 65551  49.9877 323.3121 0008200 324.3790  35.6600 14.84416147 55753","mean_motion":14.84416147,"eccentricity":0.00082,"inclination_deg":49.9877,"raan_deg":323.3121,"arg_perigee_deg":324.379,"mean_anomaly_deg":35.66,"bstar":0.00013366,"rev_number":5575,"period_min":97.007837250372,"perigee_km":609.68435900566,"apogee_km":621.15379096863,"semimajor_km":6993.5560749871,"source":"CELESTRAK","updated_at":"2026-09-21T09:00:15.424462Z"}}}